カタログに戻る

MORELOS 3

運用中通信GEO
NORAD 40946·PAYLOAD·🇲🇽 Mexico

打ち上げ Oct 2, 2015 から Cape Canaveral Space Force Station

Loading…

TLE

最新Source: Space-Track

元期: Sep 14, 2026, 21:49 UTC

1 40946U 15056A   26257.90917403 -.00000049  00000-0  00000-0 0  9999
2 40946   3.2684  17.2474 0003221 185.9153   4.9320  1.00272664 40182

AllMySatでMORELOS 3をリアルタイム追跡

Download on the App Store